Pullman, WA

6:26 AM PDT on September 24, 2017 (GMT -0700)
Pullman-Moscow Regional

Weather History for KPUW - October, 2012

Change the Weather History Date:

Monday, October 22, 2012

  Actual Average Record
Temperature  
Mean Temperature 38 °F 45 °F  
Max Temperature 46 °F 56 °F 79 °F (2003)
Min Temperature 30 °F 35 °F 22 °F (1978)
Degree Days  
Heating Degree Days 27 20  
Month to date heating degree days 351 353  
Since 1 July heating degree days 623 714  
Cooling Degree Days 0 0  
Month to date cooling degree days 0 0  
Year to date cooling degree days 248 212  
Moisture  
Dew Point 30 °F    
Average Humidity 71    
Maximum Humidity 92    
Minimum Humidity 49    
Precipitation  
Precipitation 0.01 in 0.05 in 0.62 in (1954)
Month to date precipitation 1.04 0.87  
Year to date precipitation 16.75 12.56  
Sea Level Pressure  
Sea Level Pressure 29.67 in    
Wind  
Wind Speed 10 mph (SE)    
Max Wind Speed 23 mph    
Max Gust Speed 33 mph    
Visibility 10 miles    
Events Rain    
T = Trace of Precipitation, MM = Missing Value Source: NWS Daily Summary

Daily Weather History Graph

Daily Weather History Graph

Search for Another Location

Airport or City:

Trip Planner

Search our weather history database for the weather conditions in past years. The results will help you decide how hot, cold, wet, or windy it might be!

Date:

Astronomy

Oct. 22, 2012 Rise Set
Actual Time 7:16 AM PDT 5:47 PM PDT
Civil Twilight 6:45 AM PDT 6:18 PM PDT
Nautical Twilight 6:10 AM PDT 6:54 PM PDT
Astronomical Twilight 5:35 AM PDT 7:29 PM PDT
Moon 2:21 PM PDT (10/22) No Moon Set
Length of Visible Light 11h 33m
Length of Day
10h 31m
First Quarter, 57% of the Moon is Illuminated
Oct 22
First Quarter
Oct 29
Full
Nov 6
Last Quarter
Nov 13
New
Nov 20
First Quarter

Hourly Weather History & Observations

Time (PDT) Temp. Windchill Dew Point Humidity Pressure Visibility Wind Dir Wind Speed Gust Speed Precip Events Conditions
12:53 AM 34.0 °F - 27.0 °F 75% 29.84 in 10.0 mi Calm Calm - N/A   Clear
1:53 AM 32.0 °F 28.7 °F 26.1 °F 79% 29.83 in 10.0 mi SSW 3.5 mph - N/A   Clear
2:53 AM 36.0 °F 29.0 °F 27.0 °F 70% 29.81 in 10.0 mi ESE 9.2 mph - N/A   Clear
3:53 AM 35.1 °F 27.4 °F 27.0 °F 72% 29.78 in 10.0 mi East 10.4 mph - N/A   Clear
4:53 AM 36.0 °F 27.1 °F 26.1 °F 67% 29.75 in 10.0 mi East 13.8 mph - N/A   Clear
6:53 AM 35.1 °F 26.4 °F 26.1 °F 70% 29.73 in 10.0 mi ESE 12.7 mph - N/A   Clear
7:53 AM 36.0 °F 28.0 °F 27.0 °F 70% 29.71 in 10.0 mi East 11.5 mph - N/A   Mostly Cloudy
8:53 AM 37.9 °F 30.0 °F 27.0 °F 65% 29.69 in 10.0 mi ESE 12.7 mph - N/A   Mostly Cloudy
9:53 AM 42.1 °F 34.9 °F 27.0 °F 55% 29.62 in 10.0 mi East 13.8 mph - N/A   Mostly Cloudy
10:53 AM 44.1 °F 37.7 °F 27.0 °F 51% 29.60 in 10.0 mi SE 12.7 mph - N/A   Overcast
11:53 AM 44.1 °F 38.6 °F 26.1 °F 49% 29.58 in 10.0 mi East 10.4 mph 17.3 mph N/A   Overcast
12:53 PM 43.0 °F 36.4 °F 27.0 °F 53% 29.55 in 10.0 mi East 12.7 mph 17.3 mph N/A   Overcast
1:53 PM 41.0 °F 33.9 °F 30.9 °F 67% 29.56 in 9.0 mi East 12.7 mph - 0.00 in Rain Light Rain
2:53 PM 42.1 °F 37.1 °F 33.1 °F 70% 29.55 in 9.0 mi East 8.1 mph - 0.00 in   Overcast
3:53 PM 43.0 °F 38.2 °F 33.1 °F 68% 29.56 in 8.0 mi ESE 8.1 mph - N/A   Overcast
4:45 PM 42.8 °F 36.6 °F 33.8 °F 70% 29.56 in 7.0 mi SW 11.5 mph - 0.00 in Rain Light Rain
4:53 PM 41.0 °F 33.5 °F 34.0 °F 76% 29.60 in 7.0 mi WSW 13.8 mph - 0.00 in Rain Light Rain
5:53 PM 39.0 °F 30.3 °F 36.0 °F 89% 29.63 in 10.0 mi WSW 16.1 mph 21.9 mph 0.01 in   Overcast
6:18 PM 39.2 °F 29.3 °F 35.6 °F 87% 29.60 in 10.0 mi WSW 20.7 mph 27.6 mph 0.00 in   Overcast
6:48 PM 37.4 °F 27.2 °F 35.6 °F 93% 29.61 in 10.0 mi WSW 19.6 mph 25.3 mph 0.00 in   Overcast
6:53 PM 37.9 °F 28.2 °F 35.1 °F 89% 29.66 in 10.0 mi WSW 18.4 mph 25.3 mph 0.00 in   Overcast
7:53 PM 37.9 °F 32.1 °F 35.1 °F 89% 29.70 in 10.0 mi WSW 8.1 mph - N/A   Overcast
8:53 PM 35.1 °F 32.2 °F 33.1 °F 92% 29.72 in 10.0 mi South 3.5 mph - N/A   Partly Cloudy
9:53 PM 34.0 °F - 30.9 °F 89% 29.73 in 10.0 mi Calm Calm - N/A   Clear
11:53 PM 35.1 °F 30.1 °F 30.0 °F 82% 29.75 in 10.0 mi East 5.8 mph - N/A   Overcast